Location: Krakow
(50.0830°N, 19.9170°E)
Time: 08:04:48
(UTC+02:00)

A-11 Canister half - Pass Details

Date: 15 March 2026
Orbit: 1523 x 1684 km, 47.3° (Epoch: 18 April)

Event Time Altitude Azimuth Distance (km) Brightness Sun altitude
Rises 11:04:23 0° 252° (WSW) 4,861 11.7 37.0°
Reaches altitude 10° 11:07:33 10° 251° (WSW) 3,854 11.3 37.1°
Maximum altitude 11:17:17 73° 169° (S) 1,648 10.3 37.4°
Drops below altitude 10° 11:26:42 10° 87° (E) 3,734 11.2 37.6°
Sets 11:29:43 0° 86° (E) 4,702 11.6 37.7°
